Weather History for Natchitoches, LA

Change the Weather History Date:

Sunday, March 10, 2013

  Actual Average Record
Temperature  
Mean Temperature 54 °F -  
Max Temperature 64 °F 71 °F 85 °F (1955)
Min Temperature 44 °F 46 °F 25 °F (1932)
Degree Days  
Heating Degree Days 10    
Growing Degree Days 4 (Base 50)    
Moisture  
Dew Point 53 °F    
Average Humidity 86    
Maximum Humidity 97    
Minimum Humidity 64    
Precipitation  
Precipitation 0.22 in - - ()
Sea Level Pressure  
Sea Level Pressure 29.88 in    
Wind  
Wind Speed 10 mph (WSW)    
Max Wind Speed 21 mph    
Max Gust Speed 34 mph    
Visibility 9 miles    
Events Rain , Thunderstorm    
Averages and records for this station are not official NWS values.
T = Trace of Precipitation, MM = Missing Value Source: NWS Daily Summary

Daily Weather History Graph

Daily Weather History Graph

Search for Another Location

Airport:

Trip Planner

Search our weather history database for the weather conditions in past years. The results will help you decide how hot, cold, wet, or windy it might be!

Date:

Astronomy

Mar. 10, 2013 Rise Set
Actual Time 7:28 AM CDT 7:17 PM CDT
Civil Twilight 7:04 AM CDT 7:41 PM CDT
Nautical Twilight 6:35 AM CDT 8:09 PM CDT
Astronomical Twilight 6:07 AM CDT 8:38 PM CDT
Moon 6:26 AM CDT (3/10) 6:26 PM CDT (3/10)
Length of Visible Light 12h 37m
Length of Day
11h 48m
Waning Crescent, 2% of the Moon is Illuminated
Mar 10
Waning Crescent
Mar 11
New
Mar 19
First Quarter
Mar 27
Full
Apr 2
Last Quarter

Hourly Weather History & Observations

Time (CDT) Temp. Windchill Dew Point Humidity Pressure Visibility Wind Dir Wind Speed Gust Speed Precip Events Conditions
12:15 AM 64.4 °F - 58.5 °F 81% 29.89 in 10.0 mi SSE 10.4 mph - N/A   Overcast
12:35 AM 64.0 °F - 58.5 °F 82% 29.90 in 10.0 mi SSE 9.2 mph - N/A   Overcast
12:55 AM 63.7 °F - 58.6 °F 84% 29.89 in 10.0 mi SSE 10.4 mph - N/A   Overcast
1:15 AM 63.9 °F - 59.0 °F 84% 29.88 in 10.0 mi SSE 12.7 mph 19.6 mph N/A   Overcast
1:35 AM 64.0 °F - 59.2 °F 84% 29.87 in 10.0 mi SSE 12.7 mph - N/A   Overcast
1:55 AM 64.2 °F - 59.5 °F 85% 29.85 in 10.0 mi SSE 13.8 mph 20.7 mph N/A   Overcast
3:15 AM 64.0 °F - 59.5 °F 85% 29.83 in 10.0 mi SSE 13.8 mph 19.6 mph N/A   Overcast
3:35 AM 64.0 °F - 59.9 °F 86% 29.82 in 10.0 mi SSE 15.0 mph 18.4 mph N/A   Overcast
3:55 AM 63.9 °F - 59.9 °F 87% 29.82 in 10.0 mi SSE 12.7 mph - N/A   Overcast
4:15 AM 64.2 °F - 59.9 °F 86% 29.84 in 10.0 mi South 11.5 mph 19.6 mph N/A   Overcast
4:35 AM 64.4 °F - 60.1 °F 86% 29.83 in 10.0 mi South 9.2 mph - N/A   Overcast
4:55 AM 64.2 °F - 60.3 °F 87% 29.82 in 10.0 mi SSE 13.8 mph - N/A   Overcast
5:15 AM 63.7 °F - 60.8 °F 90% 29.81 in 10.0 mi SSE 10.4 mph 17.3 mph N/A   Overcast
5:35 AM 63.9 °F - 60.6 °F 89% 29.80 in 10.0 mi South 6.9 mph - N/A   Overcast
5:55 AM 63.9 °F - 60.4 °F 89% 29.80 in 10.0 mi South 8.1 mph - N/A   Overcast
6:15 AM 63.9 °F - 60.8 °F 90% 29.81 in 10.0 mi South 11.5 mph - N/A   Overcast
7:35 AM 63.5 °F - 61.2 °F 92% 29.82 in 10.0 mi SSE 12.7 mph 17.3 mph N/A   Mostly Cloudy
7:55 AM 63.7 °F - 61.2 °F 91% 29.81 in 10.0 mi SSE 13.8 mph 18.4 mph N/A   Scattered Clouds
8:15 AM 64.4 °F - 61.2 °F 89% 29.80 in 10.0 mi SSE 20.7 mph 27.6 mph N/A   Mostly Cloudy
8:35 AM 64.4 °F - 61.2 °F 89% 29.79 in 10.0 mi SSE 20.7 mph 25.3 mph N/A   Overcast
8:55 AM 64.6 °F - 60.8 °F 88% 29.79 in 10.0 mi SSE 19.6 mph 26.5 mph N/A Rain Light Rain
9:15 AM 64.4 °F - 60.8 °F 88% 29.80 in 10.0 mi SSE 13.8 mph - N/A   Drizzle
9:35 AM 63.9 °F - 60.8 °F 90% 29.79 in 7.0 mi SSE 16.1 mph 21.9 mph 0.01 in Rain Rain
9:55 AM 64.4 °F - 61.0 °F 89% 29.80 in 10.0 mi South 13.8 mph 21.9 mph 0.02 in   Drizzle
10:15 AM 64.6 °F - 61.2 °F 89% 29.85 in 7.0 mi WNW 19.6 mph 34.5 mph N/A Rain Rain
10:35 AM 53.6 °F - 51.8 °F 94% 29.86 in 5.0 mi NNW 18.4 mph 32.2 mph 0.09 in Rain Light Rain
10:55 AM 53.6 °F - 52.0 °F 94% 29.88 in 7.0 mi NNW 11.5 mph 19.6 mph 0.11 in Rain Light Rain
11:15 AM 53.2 °F - 52.2 °F 96% 29.89 in 4.0 mi NNW 11.5 mph 19.6 mph 0.02 in Rain Light Rain
11:35 AM 53.2 °F - 52.2 °F 96% 29.90 in 3.0 mi NW 12.7 mph - 0.04 in Rain Heavy Rain
11:55 AM 53.2 °F - 52.2 °F 96% 29.90 in 3.0 mi NNW 8.1 mph - 0.05 in   Heavy Drizzle
12:15 PM 53.8 °F - 52.5 °F 95% 29.91 in 7.0 mi NNW 5.8 mph - N/A   Drizzle
12:35 PM 53.4 °F - 52.0 °F 95% 29.92 in 4.0 mi NNW 8.1 mph - N/A   Drizzle
12:55 PM 53.6 °F - 52.3 °F 95% 29.91 in 2.5 mi NNW 4.6 mph - 0.01 in   Drizzle
1:15 PM 53.6 °F - 52.3 °F 95% 29.91 in 4.0 mi NNW 3.5 mph - 0.01 in   Heavy Drizzle
1:35 PM 54.0 °F - 52.9 °F 96% 29.90 in 7.0 mi Calm Calm - 0.01 in   Drizzle
1:55 PM 54.0 °F - 53.1 °F 97% 29.91 in 4.0 mi Calm Calm - 0.02 in Rain Heavy Rain
2:15 PM 54.7 °F - 53.2 °F 95% 29.89 in 7.0 mi Calm Calm - 0.01 in   Light Drizzle
2:35 PM 55.0 °F - 53.4 °F 94% 29.88 in 10.0 mi West 3.5 mph - 0.01 in Rain Rain
2:55 PM 55.0 °F - 53.6 °F 95% 29.88 in 10.0 mi Calm Calm - 0.01 in Rain Light Rain
3:15 PM 55.4 °F - 53.6 °F 94% 29.88 in 10.0 mi Calm Calm - N/A   Light Drizzle
3:35 PM 55.4 °F - 53.6 °F 94% 29.88 in 10.0 mi Calm Calm - N/A Rain Light Rain
3:55 PM 55.4 °F - 54.0 °F 95% 29.88 in 10.0 mi Calm Calm - N/A Rain Rain
4:15 PM 55.8 °F - 54.0 °F 94% 29.87 in 10.0 mi Calm Calm - N/A Rain Rain
4:35 PM 55.9 °F - 54.0 °F 93% 29.86 in 10.0 mi Calm Calm - N/A Rain , Thunderstorm Light Thunderstorms and Rain
4:55 PM 56.3 °F - 54.0 °F 92% 29.85 in 10.0 mi West 3.5 mph - N/A   Overcast
5:15 PM 56.7 °F - 54.0 °F 91% 29.85 in 10.0 mi WNW 3.5 mph - N/A Thunderstorm Overcast
5:35 PM 57.2 °F - 54.0 °F 89% 29.86 in 10.0 mi Calm Calm - N/A   Overcast
5:55 PM 57.2 °F - 54.0 °F 89% 29.86 in 10.0 mi Calm Calm - N/A   Overcast
6:15 PM 57.2 °F - 54.5 °F 91% 29.86 in 10.0 mi Calm Calm - N/A   Overcast
6:35 PM 57.2 °F - 54.7 °F 91% 29.87 in 10.0 mi Calm Calm - N/A   Overcast
6:55 PM 57.2 °F - 55.4 °F 94% 29.87 in 10.0 mi Calm Calm - N/A   Overcast
7:15 PM 56.8 °F - 55.6 °F 96% 29.88 in 10.0 mi Calm Calm - N/A   Overcast
7:35 PM 56.8 °F - 55.2 °F 94% 29.88 in 10.0 mi Calm Calm - N/A   Overcast
7:55 PM 57.0 °F - 53.6 °F 88% 29.89 in 10.0 mi West 3.5 mph - N/A   Overcast
8:15 PM 57.2 °F - 53.2 °F 87% 29.90 in 10.0 mi Calm Calm - N/A   Overcast
8:35 PM 56.8 °F - 51.8 °F 83% 29.91 in 10.0 mi West 3.5 mph - N/A   Overcast
8:55 PM 56.3 °F - 46.9 °F 71% 29.92 in 10.0 mi WNW 12.7 mph 18.4 mph N/A   Overcast
9:15 PM 55.6 °F - 44.6 °F 67% 29.94 in 10.0 mi NW 9.2 mph 16.1 mph N/A   Overcast
9:35 PM 54.3 °F - 43.3 °F 66% 29.95 in 10.0 mi NW 13.8 mph 20.7 mph N/A Thunderstorm Overcast
9:55 PM 52.9 °F - 40.8 °F 64% 29.95 in 10.0 mi NW 18.4 mph 26.5 mph N/A   Overcast
10:15 PM 51.6 °F - 40.5 °F 66% 29.97 in 10.0 mi NW 13.8 mph 25.3 mph N/A   Overcast
10:35 PM 50.2 °F - 40.8 °F 70% 30.00 in 10.0 mi NW 12.7 mph 17.3 mph N/A   Overcast
10:55 PM 48.7 °F - 38.8 °F 69% 30.01 in 10.0 mi NW 18.4 mph 29.9 mph N/A   Scattered Clouds
11:15 PM 47.7 °F - 37.9 °F 69% 30.02 in 10.0 mi NW 19.6 mph 28.8 mph N/A   Clear
11:35 PM 46.9 °F - 36.7 °F 68% 30.01 in 10.0 mi NW 19.6 mph 26.5 mph N/A   Clear
11:55 PM 46.0 °F 39.6 °F 36.0 °F 68% 30.01 in 10.0 mi NW 15.0 mph 25.3 mph N/A   Clear
12:15 AM 45.5 °F 39.9 °F 36.0 °F 69% 29.99 in 10.0 mi NNW 11.5 mph 18.4 mph N/A   Clear
12:35 AM 45.0 °F 40.1 °F 36.3 °F 72% 30.01 in 10.0 mi NW 9.2 mph - N/A   Clear
12:55 AM 44.1 °F 39.0 °F 36.5 °F 75% 30.03 in 10.0 mi WNW 9.2 mph - N/A   Clear